Regional Weather Roundup
Issued by NWS

Home | Current Version | Previous Version | Graphics & Text | Print | Product List | Glossary On
Versions: 1 2 3 4 5 6 7 8 9 10 11 12 13 14 15 16 17 18 19 20 21 22 23 24 25 26 27 28 29 30 31 32 33 34 35 36 37 38 39 40 41 42 43 44 45 46 47 48 49 50
000
ASUS43 KTOP 131108
RWRKS

WEATHER ROUNDUP FOR KANSAS
NATIONAL WEATHER SERVICE GOODLAND KS
500 AM CST WED DEC 13 2017

NOTE:  "FAIR" INDICATES FEW OR NO CLOUDS BELOW 12,000 FEET WITH NO
SIGNIFICANT WEATHER AND/OR OBSTRUCTIONS TO VISIBILITY.

KSZ001>006-013>018-027>032-041>047-131200-
NORTHWEST KANSAS

CITY           SKY/WX    TMP DP  RH WIND       PRES   REMARKS
GOODLAND       CLEAR     38  12  34 NW16      29.99R WCI  29
HAYS           CLEAR     42  18  37 NW15      29.88R
RUSSELL        CLEAR     35  19  52 W12       29.85R WCI  27
$$

KSZ061>065-074>080-084>089-131200-
SOUTHWEST KANSAS

CITY           SKY/WX    TMP DP  RH WIND       PRES   REMARKS
DODGE CITY     CLEAR     41  15  35 W13       29.91R
ELKHART        CLOUDY    45  18  34 W14       29.98S
GARDEN CITY    CLOUDY    40  15  36 NW12      29.94R WCI  33
GREAT BEND     CLEAR     44  18  35 W12       29.86R
LIBERAL        CLOUDY    39  15  37 NW13      29.95F WCI  31
PRATT          CLEAR     38  15  39 W12       29.85F WCI  31
$$

KSZ066>073-081>083-090>101-131200-
SOUTHEAST KANSAS

CITY           SKY/WX    TMP DP  RH WIND       PRES   REMARKS
CHANUTE        CLEAR     36  27  69 S13       29.82F WCI  27
COFFEYVILLE    CLEAR     35  27  72 S13       29.87F WCI  26
HUTCHINSON     CLOUDY    35  21  56 NW12      29.82F WCI  27
MEDICINE LODGE   N/A     32  19  58 NW6       29.86F
NEWTON         CLEAR     36  22  56 W15       29.80F WCI  27
PARSONS        CLEAR     34  28  79 S8        29.86F
WICHITA INTL   CLOUDY    29  23  78 S7        29.82F
WICHITA JABRA  CLEAR     36  25  64 SW12      29.81F WCI  28
WICHITA MCCONL CLEAR     34  24  66 SW9       29.82F
WINFIELD       CLEAR     31  26  82 S5        29.85F
$$

KSZ007>012-019>026-033>040-048>060-102>105-131200-
NORTHEAST KANSAS

CITY           SKY/WX    TMP DP  RH WIND       PRES   REMARKS
CONCORDIA      MOCLDY    38  21  50 W13       29.78R WCI  30
EMPORIA        CLEAR     38  24  57 SW9       29.76F
LAWRENCE       CLEAR     37  28  70 SW7       29.72F
MANHATTAN      CLEAR     33  22  63 NE5       29.77R
MARYSVILLE     CLEAR     34  21  60 SW5       29.73S
OLATHE IND     CLEAR     36  27  69 S13       29.73F WCI  27
OLATHE EXE     CLEAR     34  27  75 S10       29.72F WCI  26
SALINA         CLEAR     46  21  37 NW16      29.80R
TOPEKA BILLARD CLEAR     38  27  64 SW7       29.73F
TOPEKA FORBES  CLEAR     38  27  64 SW12      29.72F WCI  30
$$




USA.gov is the U.S. government's official web portal to all federal, state and local government web resources and services.